Regional Weather Roundup
Issued by NWS

Home | Current Version | Previous Version | Graphics & Text | Print | Product List | Glossary On
Versions: 1 2 3 4 5 6 7 8 9 10 11 12 13 14 15 16 17 18 19 20 21 22 23 24 25 26 27 28 29 30 31 32 33 34 35 36 37 38 39 40 41 42 43 44 45 46 47 48 49 50
000
ASUS43 KIND 230759
RWRIN

WEATHER ROUNDUP FOR INDIANA
NATIONAL WEATHER SERVICE INDIANAPOLIS IN
300 AM EST SUN NOV 23 2014

NOTE: "FAIR" INDICATES FEW OR NO CLOUDS BELOW 12,000 FEET WITH NO
SIGNIFICANT WEATHER AND/OR OBSTRUCTIONS TO VISIBILITY.

* - STATION DOES NOT REPORT WEATHER SUCH AS PRECIPITATION OR FOG.

+ - STATION NOT QUALITY CONTROLLED BY THE NATIONAL WEATHER SERVICE.
    USE DATA WITH CAUTION...ESPECIALLY DEWPOINT AND RELATIVE
    HUMIDITY OBSERVATIONS.

INZ001>003-010>013-019-020-230900-
NORTHWEST INDIANA

CITY           SKY/WX    TMP DP  RH WIND       PRES   REMARKS
GARY /AIRPORT/ CLOUDY    51  46  83 S10G17    29.86S
VALPARAISO     NOT AVBL

$$

LMZ046-743>745-230900-
SOUTHERN LAKE MICHIGAN

STATION/POSITION TIME  TEMP WIND        PRES
                       AIR  DIR/SP/G
                 (UTC) (F)  (DEG/KT/KT) (MB)
MICHIGAN CITY    0700   51  170/ 17/ 21   N/A

$$

INZ004-005-014>016-021>024-230900-
NORTH CENTRAL INDIANA

CITY           SKY/WX    TMP DP  RH WIND       PRES   REMARKS
GOSHEN         CLOUDY    48  44  86 S14       29.92F
SOUTH BEND     CLOUDY    50  45  83 SW16      29.90F

$$

INZ006>009-017-018-025>027-230900-
NORTHEAST INDIANA

CITY           SKY/WX    TMP DP  RH WIND       PRES   REMARKS
ANGOLA *+      CLOUDY    48  43  81 SW12      29.94S
FORT WAYNE     LGT RAIN  46  42  86 SW9       29.97S

$$

INZ028-029-035-036-043>045-051>053-230900-
WEST CENTRAL INDIANA

CITY           SKY/WX    TMP DP  RH WIND       PRES   REMARKS
GREENCASTLE +  CLOUDY    50  41  71 S6        29.94F
LAFAYETTE      CLOUDY    47  44  90 S6        29.91F
TERRE HAUTE    CLOUDY    49  39  68 S9        29.93F

$$

INZ030>032-037>040-046>048-054>057-064-065-230900-
CENTRAL INDIANA

CITY           SKY/WX    TMP DP  RH WIND       PRES   REMARKS
CP ATTERBURY + CLOUDY    46  37  71 SE5       29.98F
INDIANAPOLIS   CLOUDY    50  38  63 SE10      29.94F
-EAGLE CREEK   CLOUDY    48  41  76 S6        29.95F
KOKOMO *+      CLOUDY    46  43  87 S14       29.94F
MT COMFORT *+  CLOUDY    46  34  61 S10       29.97F
SHELBYVILLE    CLOUDY    48  39  71 SE9       29.98F

$$

INZ033-034-041-042-049-050-058-059-230900-
EAST CENTRAL INDIANA

CITY           SKY/WX    TMP DP  RH WIND       PRES   REMARKS
MUNCIE         LGT RAIN  47  41  80 S7        29.97F

$$

INZ060-061-067>069-081>083-085>088-230900-
SOUTHWEST INDIANA

CITY           SKY/WX    TMP DP  RH WIND       PRES   REMARKS
EVANSVILLE     PTCLDY    50  38  63 SE6       29.96F
HUNTINGBURG *+ MOCLDY    54  39  58 S7        29.99F

$$

INZ062-063-066-070>080-084-089>092-230900-
SOUTH CENTRAL AND SOUTHEAST INDIANA

CITY           SKY/WX    TMP DP  RH WIND       PRES   REMARKS
BLOOMINGTON    CLOUDY    51  39  63 SE9       29.96F

$$




USA.gov is the U.S. government's official web portal to all federal, state and local government web resources and services.